Location: Seattle
(47.6060°N, 122.3310°W)
Time: 22:07:56
(UTC-08:00)

ISS - Visible Passes

Search period start: 19 November 2017 00:00
Search period end: 29 November 2017 00:00
Orbit: 402 x 407 km, 51.6° (Epoch: 21 November)

Date Brightness Start Highest point End Pass type
(mag) Time Alt. Az. Time Alt. Az. Time Alt. Az.
26 Nov -1.2 18:40:23 10° SSW 18:40:56 13° S 18:40:56 13° S visible
27 Nov -1.6 17:49:09 10° SSE 17:50:51 13° SE 17:50:57 13° SE visible
27 Nov -0.4 19:23:33 10° WSW 19:23:37 10° WSW 19:23:37 10° WSW visible
28 Nov -2.5 18:31:21 10° SW 18:33:33 33° SSW 18:33:33 33° SSW visible
